Location: Unspecified
(0.0000°N, 0.0000°E)
Time: 16:27:35
(UTC+00:00)

Tiros 1 - All Passes

Search period start: 28 May 2017 00:00
Search period end: 07 June 2017 00:00
Orbit: 631 x 664 km, 48.4° (Epoch: 27 May)

Date Brightness Start Highest point End Pass type
(mag) Time Alt. Az. Time Alt. Az. Time Alt. Az.
28 May - 07:16:47 10° NW 07:21:24 82° SW 07:26:04 10° SE daylight
28 May - 17:49:45 10° SSE 17:52:32 15° SE 17:55:19 10° E daylight
28 May - 19:30:04 10° WSW 19:34:38 43° NW 19:39:09 10° NNE visible
29 May - 06:01:45 10° N 06:05:33 25° NE 06:09:23 10° ESE daylight
29 May - 07:43:52 10° WNW 07:47:35 24° SW 07:51:19 10° S daylight
29 May - 18:14:08 10° SSW 18:18:46 48° SE 18:23:21 10° NE visible
29 May - 19:58:25 10° W 20:00:50 14° NW 20:03:15 10° NNW visible
30 May - 06:27:06 10° NW 06:31:42 88° NE 06:36:22 10° SE daylight
30 May - 17:00:25 10° SSE 17:02:49 14° SE 17:05:11 10° E daylight
30 May - 18:40:16 10° SW 18:44:55 49° NW 18:49:31 10° NNE visible
31 May - 05:12:14 10° N 05:15:52 23° NE 05:19:30 10° ESE visible
31 May - 06:54:01 10° WNW 06:57:53 26° SW 07:01:47 10° S daylight
31 May - 17:24:29 10° SSW 17:29:03 42° SE 17:33:34 10° ENE daylight
31 May - 19:08:17 10° W 19:11:07 16° NW 19:13:56 10° NNW visible
01 Jun - 05:37:25 10° NW 05:42:01 79° NE 05:46:39 10° SE daylight
01 Jun - 16:11:13 10° SSE 16:13:05 12° SE 16:14:56 10° ESE daylight
01 Jun - 17:50:29 10° SW 17:55:12 56° NW 17:59:53 10° NNE daylight
02 Jun - 04:22:45 10° N 04:26:10 20° NE 04:29:34 10° E visible
02 Jun - 06:04:10 10° WNW 06:08:11 29° SW 06:12:13 10° S daylight
02 Jun - 16:34:52 10° SSW 16:39:20 38° SE 16:43:46 10° ENE daylight
02 Jun - 18:18:13 10° W 18:21:24 17° NW 18:24:33 10° N visible
03 Jun - 04:47:45 10° NNW 04:52:19 69° NE 04:56:56 10° SE visible
03 Jun - 15:22:18 10° SE 15:23:21 11° SE 15:24:23 10° ESE daylight
03 Jun - 17:00:44 10° SW 17:05:29 63° NW 17:10:14 10° NNE daylight
04 Jun - 03:33:18 10° N 03:36:28 18° NE 03:39:37 10° E visible
04 Jun - 05:14:19 10° WNW 05:18:29 33° SW 05:22:39 10° SSE visible
04 Jun - 15:45:16 10° SSW 15:49:37 34° SE 15:53:57 10° ENE daylight
04 Jun - 17:28:13 10° W 17:31:40 19° NW 17:35:06 10° N daylight
05 Jun - 03:58:05 10° NNW 04:02:38 61° NE 04:07:12 10° SE visible
05 Jun - 05:44:28 10° SW 05:44:44 10° SW 05:45:01 10° SW daylight
05 Jun - 16:10:58 10° SW 16:15:46 72° NW 16:20:32 10° NNE daylight
06 Jun - 02:43:53 10° NNE 02:46:45 16° NE 02:49:36 10° E night (unlit)
06 Jun - 04:24:31 10° WNW 04:28:46 37° SW 04:33:03 10° SSE visible
06 Jun - 14:55:41 10° S 14:59:54 30° SE 15:04:05 10° ENE daylight
06 Jun - 16:38:16 10° W 16:41:57 22° NW 16:45:37 10° N daylight
